Regional Weather Roundup
Issued by NWS

Home | Current Version | Previous Version | Text Only | Print | Product List | Glossary On
Versions: 1 2 3 4 5 6 7 8 9 10 11 12 13 14 15 16 17 18 19 20 21 22 23 24 25 26 27 28 29 30 31 32 33 34 35 36 37 38 39 40 41 42 43 44 45 46 47 48 49 50
000
ASUS43 KDMX 200207
RWRIA

WEATHER ROUNDUP FOR IOWA
NATIONAL WEATHER SERVICE DES MOINES IA
900 PM CDT FRI SEP 19 2014

NOTE: "FAIR" INDICATES FEW OR NO CLOUDS BELOW 12,000 FEET WITH NO
SIGNIFICANT WEATHER AND/OR OBSTRUCTIONS TO VISIBILITY.

* - THESE STATIONS ARE NOT NWS STATIONS...THUS NOT UNDER NWS
QUALITY CONTROL.  THEY ALSO DO NOT REPORT WEATHER SUCH
AS PRECIPITATION OR FOG.

IAZ001>003-012>014-020>022-031>034-043>046-200300-
   NORTHWEST IOWA

CITY           SKY/WX    TMP DP  RH WIND       PRES   REMARKS
CARROLL *      PTCLDY    70  66  88 S9G15     29.82R
CHEROKEE *     PTCLDY    75  70  83 S13       29.75S
DENISON *      CLEAR     73  70  88 S12G22    29.79R
LE MARS *      CLOUDY    77  68  73 S9        29.73F
ORANGE CITY *  PTCLDY    75  64  69 S8        29.72F
SHELDON *      PTCLDY    77  68  73 S10       29.71F
SIOUX CITY     PTCLDY    76  67  73 S8        29.74S
SPENCER        PTCLDY    76  68  76 S12       29.75R
STORM LAKE *   CLEAR     72  72 100 S10G16    29.78F
$$

IAZ055>058-069>071-079>083-090>094-200300-
   SOUTHWEST IOWA

CITY           SKY/WX    TMP DP  RH WIND       PRES   REMARKS
ATLANTIC *     CLEAR     70  68  94 S15       29.84R
AUDUBON *      CLEAR     70  63  78 S10G18    29.84S HAZE
CLARINDA *     CLEAR     70  68  94 S7        29.89R
COUNCIL BLFS *   N/A     73  72  94 S13       29.83R
CRESTON *      CLEAR     68  66  94 S16       29.89S
HARLAN  *      CLEAR     72  70  94 S13G20    29.86S
LAMONI         CLEAR     68  65  90 S10       29.92R
RED OAK *      CLEAR     72  68  88 S13       29.86S
SHENANDOAH *   CLEAR     73  70  88 S15G23    29.87R
$$

IAZ047>049-059>061-072>074-084-200300-
   CENTRAL IOWA

CITY           SKY/WX    TMP DP  RH WIND       PRES   REMARKS
AMES           CLEAR     70  66  87 S12       29.85R
ANKENY *       CLEAR     72  66  83 S15G22    29.85R
CHARITON *     CLEAR     70  64  83 S12       29.90R
DES MOINES     PTCLDY    72  65  78 S16       29.85S
GRINNELL*      CLEAR     68  61  77 S13G18    29.88S
KNOXVILLE *    CLEAR     70  63  78 S13       29.88R
MARSHALLTOWN   CLEAR     69  62  78 S13       29.85R
PELLA *        CLEAR     68  63  83 S10       29.90R
PERRY *        CLOUDY    70  66  88 S10G16    29.85R
$$

IAZ004>006-015-016-023>025-035-036-200300-
   NORTH CENTRAL IOWA

CITY           SKY/WX    TMP DP  RH WIND       PRES   REMARKS
ALGONA *       CLEAR     73  68  83 S17G23    29.77R
CLARION *        N/A     72  68  88 S17G24    29.80S
ESTHERVILLE    PTCLDY    74  67  78 S14       29.74R
FORT DODGE *   CLEAR     70  64  83 S12       29.82S
MASON CITY     CLEAR     71  66  84 S13       29.80S
FOREST CITY *    N/A     72  66  83 S15G22    29.78S
IOWA FALLS *     N/A     70  64  83 S14       29.84S
$$

IAZ007>011-017>019-026>030-037>042-050>054-066-200300-
   NORTHEAST IOWA

CITY           SKY/WX    TMP DP  RH WIND       PRES   REMARKS
CEDAR RAPIDS   CLEAR     67  59  75 S15       29.87F
CHARLES CITY * CLEAR     68  63  83 S12G17    29.83R
CLINTON *      CLEAR     63  54  72 S7        29.95S
DECORAH *      PTCLDY    68  59  73 S10       29.82S
DUBUQUE        CLEAR     66  55  67 S21       29.87F
MONTICELLO *   CLEAR     68  57  68 S10G17    29.88S
OELWEIN *      CLEAR     68  59  73 S14       29.86R
WATERLOO       CLEAR     69  60  73 S16       29.83R
$$

IAZ064-065-067-068-078-200300-
   EAST CENTRAL IOWA

CITY           SKY/WX    TMP DP  RH WIND       PRES   REMARKS
DAVENPORT      CLEAR     68  54  60 S15       29.93S
IOWA CITY      CLEAR     68  58  70 S12       29.91S
MT. PLEASANT * CLEAR     66  55  68 S9        29.94S
MUSCATINE *    CLEAR     66  57  72 S10       29.93S
QUAD CITIES    CLEAR     67  54  63 S8        29.93S
$$

IAZ062-063-075>077-085>089-095>099-200300-
   SOUTHEAST IOWA

CITY           SKY/WX    TMP DP  RH WIND       PRES   REMARKS
BURLINGTON     CLEAR     67  58  72 S10       29.95R
FAIRFIELD *    CLEAR     68  57  68 S12       29.92R
FORT MADISON * CLEAR     68  57  68 S8        29.96S
KEOKUK *       CLEAR     68  59  73 S7        29.95S
OSKALOOSA *      N/A     66  63  88 S9        29.90S
CENTERVILLE *    N/A     66  64  94 S7        29.94R
OTTUMWA        CLEAR     69  61  75 S12       29.90S
WASHINGTON *   CLEAR     68  59  73 S13       29.91S
$$

ABBREVIATIONS USED IN REMARKS
   TC - TEMPERATURES IN CELSIUS
  WCI - WIND CHILL INDEX
   HX - HEAT INDEX
  VSB - VISIBILITY
$$



USA.gov is the U.S. government's official web portal to all federal, state and local government web resources and services.